When you browse on this site, cookies collect data to enhance your experience and personalize the content and advertising you see.
Visit our Privacy Policy to learn more. By continuing to use the site, you agree to this use of cookies and data.
  • In United Kingdom
  • List of Countries
  • For 7 days
  • Water Temperature
  • Weather Map
  • Weather Widgets
  • user-avatar
    Login

    Hourly Weather Pishky

    Today, 23 August, Friday

    Time Temperature Precipitation Wind Pressure Humidity
    00:00 +18°C° 0 mm 4 mps 753 mmHg 87%
    01:00 +18°C° 0 mm 4 mps 753 mmHg 88%
    02:00 +17°C° 0 mm 3 mps 753 mmHg 90%
    03:00 +17°C° 0 mm 3 mps 753 mmHg 91%
    04:00 +16°C° 0 mm 3 mps 753 mmHg 92%
    05:00 +15°C° 0 mm 4 mps 753 mmHg 93%
    06:00 +17°C° 0 mm 4 mps 753 mmHg 87%
    07:00 +19°C° 0 mm 4 mps 753 mmHg 80%
    08:00 +20°C° 0 mm 4 mps 754 mmHg 71%
    09:00 +22°C° 0 mm 4 mps 754 mmHg 67%
    10:00 +25°C° 0 mm 4 mps 753 mmHg 62%
    11:00 +26°C° 0 mm 4 mps 753 mmHg 58%
    12:00 +27°C° 0.1 mm 5 mps 753 mmHg 56%
    13:00 +28°C° 0.1 mm 5 mps 753 mmHg 54%
    14:00 +28°C° 0 mm 5 mps 753 mmHg 54%
    15:00 +28°C° 0 mm 5 mps 753 mmHg 55%
    16:00 +27°C° 0 mm 5 mps 753 mmHg 56%
    17:00 +27°C° 0 mm 5 mps 753 mmHg 56%
    18:00 +25°C° 0 mm 4 mps 753 mmHg 63%
    19:00 +23°C° 0 mm 4 mps 753 mmHg 70%
    20:00 +21°C° 0 mm 3 mps 753 mmHg 76%
    21:00 +20°C° 0 mm 3 mps 753 mmHg 80%
    22:00 +19°C° 0 mm 3 mps 753 mmHg 84%
    23:00 +19°C° 0 mm 3 mps 753 mmHg 88%

    Tomorrow, 24 August, Saturday

    Time Temperature Precipitation Wind Pressure Humidity
    00:00 +18°C° 0 mm 3 mps 753 mmHg 90%
    01:00 +18°C° 0 mm 3 mps 753 mmHg 93%
    02:00 +17°C° 0 mm 3 mps 753 mmHg 95%
    03:00 +17°C° 0 mm 3 mps 753 mmHg 96%
    04:00 +17°C° 0 mm 3 mps 753 mmHg 96%
    05:00 +17°C° 0 mm 3 mps 753 mmHg 96%
    06:00 +18°C° 0 mm 3 mps 753 mmHg 89%
    07:00 +20°C° 0 mm 4 mps 753 mmHg 81%
    08:00 +21°C° 0 mm 4 mps 754 mmHg 74%
    09:00 +23°C° 0 mm 4 mps 754 mmHg 66%
    10:00 +26°C° 0 mm 4 mps 753 mmHg 59%
    11:00 +28°C° 0 mm 4 mps 753 mmHg 51%
    12:00 +29°C° 0 mm 4 mps 753 mmHg 47%
    13:00 +30°C° 0 mm 4 mps 753 mmHg 43%
    14:00 +32°C° 0 mm 4 mps 753 mmHg 40%
    15:00 +30°C° 0 mm 4 mps 752 mmHg 40%
    16:00 +30°C° 0 mm 4 mps 752 mmHg 41%
    17:00 +29°C° 0 mm 5 mps 752 mmHg 41%
    18:00 +27°C° 0 mm 4 mps 752 mmHg 47%
    19:00 +25°C° 0 mm 4 mps 752 mmHg 53%
    20:00 +22°C° 0 mm 4 mps 753 mmHg 59%
    21:00 +21°C° 0 mm 4 mps 753 mmHg 60%
    22:00 +20°C° 0 mm 3 mps 753 mmHg 62%
    23:00 +19°C° 0 mm 3 mps 753 mmHg 63%

    Day after tomorrow, 25 August, Sunday

    Time Temperature Precipitation Wind Pressure Humidity
    00:00 +18°C° 0 mm 3 mps 753 mmHg 66%
    01:00 +18°C° 0 mm 3 mps 753 mmHg 69%
    02:00 +17°C° 0 mm 3 mps 753 mmHg 72%
    03:00 +16°C° 0 mm 3 mps 753 mmHg 73%
    04:00 +16°C° 0 mm 3 mps 753 mmHg 75%
    05:00 +14°C° 0 mm 3 mps 753 mmHg 77%
    06:00 +17°C° 0 mm 3 mps 753 mmHg 69%
    07:00 +19°C° 0 mm 3 mps 753 mmHg 62%
    08:00 +21°C° 0 mm 3 mps 754 mmHg 54%
    09:00 +24°C° 0 mm 3 mps 754 mmHg 47%
    10:00 +26°C° 0 mm 3 mps 754 mmHg 41%
    11:00 +27°C° 0 mm 3 mps 754 mmHg 34%
    12:00 +28°C° 0 mm 4 mps 753 mmHg 32%
    13:00 +29°C° 0 mm 4 mps 753 mmHg 29%
    14:00 +30°C° 0 mm 4 mps 753 mmHg 26%
    15:00 +29°C° 0 mm 4 mps 753 mmHg 27%
    16:00 +29°C° 0 mm 4 mps 753 mmHg 28%
    17:00 +29°C° 0 mm 4 mps 753 mmHg 29%
    18:00 +26°C° 0 mm 3 mps 753 mmHg 38%
    19:00 +24°C° 0 mm 3 mps 753 mmHg 46%
    20:00 +21°C° 0 mm 3 mps 753 mmHg 54%
    21:00 +20°C° 0 mm 3 mps 753 mmHg 60%
    22:00 +19°C° 0 mm 3 mps 754 mmHg 67%
    23:00 +18°C° 0 mm 3 mps 754 mmHg 74%

    26 August, Monday

    Time Temperature Precipitation Wind Pressure Humidity
    00:00 +18°C° 0 mm 3 mps 754 mmHg 78%
    01:00 +17°C° 0 mm 2 mps 754 mmHg 83%
    02:00 +17°C° 0 mm 2 mps 754 mmHg 87%
    03:00 +16°C° 0 mm 2 mps 754 mmHg 89%
    04:00 +16°C° 0 mm 2 mps 754 mmHg 90%
    05:00 +16°C° 0 mm 2 mps 754 mmHg 92%
    06:00 +18°C° 0 mm 2 mps 754 mmHg 82%
    07:00 +20°C° 0 mm 3 mps 754 mmHg 73%
    08:00 +22°C° 0 mm 3 mps 754 mmHg 63%
    09:00 +24°C° 0 mm 3 mps 754 mmHg 56%
    10:00 +26°C° 0 mm 3 mps 754 mmHg 50%
    11:00 +27°C° 0 mm 3 mps 754 mmHg 43%
    12:00 +28°C° 0 mm 3 mps 754 mmHg 40%
    13:00 +29°C° 0 mm 3 mps 754 mmHg 37%
    14:00 +30°C° 0 mm 3 mps 753 mmHg 33%
    15:00 +29°C° 0 mm 3 mps 753 mmHg 33%
    16:00 +29°C° 0 mm 3 mps 753 mmHg 33%
    17:00 +28°C° 0 mm 3 mps 752 mmHg 33%
    18:00 +26°C° 0 mm 3 mps 752 mmHg 38%
    19:00 +24°C° 0 mm 2 mps 752 mmHg 44%
    20:00 +20°C° 0 mm 2 mps 753 mmHg 49%
    21:00 +19°C° 0 mm 2 mps 753 mmHg 52%
    22:00 +18°C° 0 mm 2 mps 753 mmHg 54%
    23:00 +17°C° 0 mm 2 mps 753 mmHg 57%

    27 August, Tuesday

    Time Temperature Precipitation Wind Pressure Humidity
    00:00 +18°C° 0 mm 1 mps 753 mmHg 58%
    01:00 +16°C° 0 mm 1 mps 752 mmHg 60%
    02:00 +16°C° 0 mm 1 mps 752 mmHg 61%
    03:00 +15°C° 0 mm 1 mps 752 mmHg 63%
    04:00 +15°C° 0 mm 1 mps 752 mmHg 64%
    05:00 +14°C° 0 mm 1 mps 752 mmHg 66%
    06:00 +18°C° 0 mm 1 mps 752 mmHg 59%
    07:00 +20°C° 0 mm 1 mps 753 mmHg 51%
    08:00 +23°C° 0 mm 2 mps 753 mmHg 44%
    09:00 +24°C° 0 mm 2 mps 753 mmHg 40%
    10:00 +26°C° 0 mm 3 mps 752 mmHg 37%
    11:00 +28°C° 0 mm 3 mps 752 mmHg 33%
    12:00 +29°C° 0 mm 3 mps 752 mmHg 32%
    13:00 +29°C° 0 mm 3 mps 752 mmHg 30%
    14:00 +30°C° 0 mm 3 mps 751 mmHg 28%
    15:00 +30°C° 0 mm 4 mps 751 mmHg 29%
    16:00 +29°C° 0 mm 4 mps 751 mmHg 31%
    17:00 +29°C° 0 mm 4 mps 751 mmHg 32%
    18:00 +26°C° 0 mm 3 mps 751 mmHg 38%
    19:00 +24°C° 0 mm 3 mps 751 mmHg 44%
    20:00 +21°C° 0 mm 2 mps 751 mmHg 51%
    21:00 +20°C° 0 mm 2 mps 751 mmHg 54%
    22:00 +19°C° 0 mm 2 mps 751 mmHg 57%
    23:00 +19°C° 0 mm 2 mps 751 mmHg 60%

    28 August, Wednesday

    Time Temperature Precipitation Wind Pressure Humidity
    00:00 +18°C° 0 mm 2 mps 751 mmHg 65%
    01:00 +18°C° 0 mm 2 mps 751 mmHg 70%
    02:00 +18°C° 0 mm 2 mps 751 mmHg 74%
    03:00 +17°C° 0 mm 2 mps 751 mmHg 79%
    04:00 +17°C° 0 mm 2 mps 751 mmHg 84%
    05:00 +16°C° 0 mm 2 mps 751 mmHg 89%
    06:00 +18°C° 0 mm 2 mps 751 mmHg 81%
    07:00 +20°C° 0 mm 2 mps 751 mmHg 73%
    08:00 +23°C° 0 mm 2 mps 752 mmHg 65%
    09:00 +25°C° 0 mm 3 mps 751 mmHg 58%
    10:00 +26°C° 0 mm 3 mps 751 mmHg 51%
    11:00 +27°C° 0 mm 4 mps 751 mmHg 44%
    12:00 +28°C° 0 mm 4 mps 751 mmHg 41%
    13:00 +28°C° 0 mm 4 mps 751 mmHg 38%
    14:00 +29°C° 0 mm 3 mps 751 mmHg 35%
    15:00 +28°C° 0 mm 4 mps 750 mmHg 36%
    16:00 +28°C° 0 mm 4 mps 750 mmHg 36%
    17:00 +27°C° 0 mm 4 mps 750 mmHg 37%
    18:00 +25°C° 0 mm 4 mps 750 mmHg 40%
    19:00 +22°C° 0 mm 4 mps 750 mmHg 44%
    20:00 +19°C° 0 mm 3 mps 751 mmHg 47%
    21:00 +18°C° 0 mm 3 mps 751 mmHg 51%
    22:00 +17°C° 0 mm 3 mps 751 mmHg 54%
    23:00 +16°C° 0 mm 3 mps 751 mmHg 58%
    Show more